TimePDT,TemperatureF,Dew PointF,Humidity,Sea Level PressureIn,VisibilityMPH,Wind Direction,Wind SpeedMPH,Gust SpeedMPH,PrecipitationIn,Events,Conditions,WindDirDegrees,DateUTC
12:15 AM,59.0,32.0,36,30.12,10.0,ESE,9.2,-,N/A,,Clear,120,2012-10-18 07:15:00
12:35 AM,55.4,32.0,41,30.12,10.0,SE,9.2,-,N/A,,Clear,130,2012-10-18 07:35:00
12:55 AM,55.4,32.0,41,30.13,10.0,SE,8.1,-,N/A,,Clear,130,2012-10-18 07:55:00
1:15 AM,53.6,30.2,41,30.13,10.0,SE,11.5,-,N/A,,Clear,130,2012-10-18 08:15:00
1:35 AM,53.6,30.2,41,30.13,10.0,ESE,11.5,-,N/A,,Clear,120,2012-10-18 08:35:00
1:55 AM,53.6,30.2,41,30.14,10.0,ESE,6.9,-,N/A,,Clear,120,2012-10-18 08:55:00
2:15 AM,53.6,30.2,41,30.14,10.0,East,3.5,-,N/A,,Clear,80,2012-10-18 09:15:00
2:35 AM,53.6,32.0,44,30.13,10.0,East,8.1,-,N/A,,Clear,80,2012-10-18 09:35:00
2:55 AM,57.2,30.2,36,30.13,10.0,ESE,12.7,-,N/A,,Clear,120,2012-10-18 09:55:00
3:55 AM,57.2,30.2,36,30.12,10.0,ESE,13.8,-,N/A,,Clear,120,2012-10-18 10:55:00
4:15 AM,62.6,30.2,30,30.12,10.0,ESE,13.8,-,N/A,,Clear,110,2012-10-18 11:15:00
4:35 AM,55.4,30.2,38,30.13,10.0,ESE,12.7,-,N/A,,Clear,120,2012-10-18 11:35:00
4:55 AM,53.6,30.2,41,30.13,10.0,ESE,13.8,-,N/A,,Clear,120,2012-10-18 11:55:00
5:15 AM,57.2,30.2,36,30.13,10.0,ESE,11.5,-,N/A,,Clear,120,2012-10-18 12:15:00
5:35 AM,57.2,30.2,36,30.13,10.0,ESE,13.8,-,N/A,,Clear,110,2012-10-18 12:35:00
5:55 AM,57.2,28.4,33,30.14,10.0,ESE,12.7,-,N/A,,Clear,120,2012-10-18 12:55:00
6:35 AM,53.6,30.2,41,30.15,10.0,ESE,10.4,-,N/A,,Clear,120,2012-10-18 13:35:00
6:55 AM,53.6,28.4,38,30.15,10.0,ESE,13.8,-,N/A,,Clear,120,2012-10-18 13:55:00
7:35 AM,59.0,28.4,31,30.15,9.0,East,10.4,-,N/A,,Clear,100,2012-10-18 14:35:00
7:55 AM,64.4,28.4,26,30.16,8.0,ESE,11.5,-,N/A,,Clear,110,2012-10-18 14:55:00
8:15 AM,66.2,28.4,24,30.16,8.0,East,11.5,17.3,N/A,,Clear,100,2012-10-18 15:15:00
8:35 AM,68.0,28.4,23,30.17,9.0,ESE,12.7,-,N/A,,Clear,110,2012-10-18 15:35:00
8:55 AM,68.0,28.4,23,30.18,9.0,ESE,11.5,-,N/A,,Clear,110,2012-10-18 15:55:00
9:15 AM,73.4,26.6,18,30.18,9.0,SE,15.0,23.0,N/A,,Clear,130,2012-10-18 16:15:00
9:35 AM,73.4,24.8,16,30.18,9.0,ESE,17.3,24.2,N/A,,Clear,120,2012-10-18 16:35:00
9:55 AM,75.2,24.8,15,30.19,9.0,ESE,17.3,25.3,N/A,,Clear,120,2012-10-18 16:55:00
10:15 AM,75.2,24.8,15,30.19,10.0,ESE,18.4,25.3,N/A,,Clear,110,2012-10-18 17:15:00
10:35 AM,75.2,24.8,15,30.19,8.0,ESE,18.4,23.0,N/A,,Clear,120,2012-10-18 17:35:00
10:55 AM,75.2,24.8,15,30.19,8.0,ESE,17.3,24.2,N/A,,Clear,110,2012-10-18 17:55:00
11:15 AM,77.0,24.8,14,30.19,7.0,ESE,18.4,24.2,N/A,,Clear,120,2012-10-18 18:15:00
11:35 AM,77.0,24.8,14,30.19,9.0,ESE,16.1,23.0,N/A,,Clear,110,2012-10-18 18:35:00
11:55 AM,77.0,24.8,14,30.19,9.0,SE,19.6,24.2,N/A,,Clear,130,2012-10-18 18:55:00
12:15 PM,77.0,24.8,14,30.18,9.0,SE,16.1,20.7,N/A,,Clear,130,2012-10-18 19:15:00
12:35 PM,78.8,24.8,14,30.17,9.0,ESE,16.1,24.2,N/A,,Clear,120,2012-10-18 19:35:00
12:55 PM,77.0,24.8,14,30.17,8.0,SE,13.8,-,N/A,,Clear,130,2012-10-18 19:55:00
1:15 PM,78.8,24.8,14,30.16,10.0,SE,13.8,20.7,N/A,,Clear,130,2012-10-18 20:15:00
1:35 PM,78.8,24.8,14,30.16,9.0,ESE,11.5,-,N/A,,Clear,120,2012-10-18 20:35:00
1:55 PM,78.8,24.8,14,30.15,9.0,SSE,8.1,19.6,N/A,,Clear,160,2012-10-18 20:55:00
2:35 PM,78.8,23.0,13,30.14,9.0,SSE,11.5,16.1,N/A,,Clear,150,2012-10-18 21:35:00
2:55 PM,80.6,23.0,12,30.14,9.0,SSE,10.4,-,N/A,,Clear,150,2012-10-18 21:55:00
3:15 PM,80.6,23.0,12,30.14,10.0,SE,10.4,-,N/A,,Clear,130,2012-10-18 22:15:00
3:35 PM,80.6,21.2,11,30.14,9.0,SE,10.4,-,N/A,,Clear,130,2012-10-18 22:35:00
3:55 PM,80.6,23.0,12,30.14,9.0,SSE,9.2,-,N/A,,Clear,150,2012-10-18 22:55:00
4:15 PM,78.8,23.0,13,30.13,10.0,SSE,10.4,-,N/A,,Clear,150,2012-10-18 23:15:00
4:35 PM,78.8,21.2,12,30.13,10.0,SE,8.1,-,N/A,,Clear,140,2012-10-18 23:35:00
4:55 PM,77.0,23.0,13,30.13,10.0,SE,6.9,-,N/A,,Clear,130,2012-10-18 23:55:00
5:15 PM,77.0,23.0,13,30.13,10.0,SE,8.1,-,N/A,,Clear,130,2012-10-19 00:15:00
5:35 PM,75.2,23.0,14,30.13,9.0,SE,5.8,-,N/A,,Clear,130,2012-10-19 00:35:00
5:55 PM,75.2,28.4,18,30.13,10.0,WNW,4.6,-,N/A,,Clear,300,2012-10-19 00:55:00
6:15 PM,71.6,32.0,23,30.14,9.0,WNW,5.8,-,N/A,,Clear,300,2012-10-19 01:15:00
6:35 PM,68.0,32.0,26,30.14,10.0,WNW,5.8,-,N/A,,Clear,290,2012-10-19 01:35:00
6:55 PM,68.0,35.6,30,30.14,10.0,SW,6.9,-,N/A,,Clear,230,2012-10-19 01:55:00
7:15 PM,66.2,37.4,35,30.15,10.0,West,4.6,-,N/A,,Clear,280,2012-10-19 02:15:00
7:35 PM,66.2,37.4,35,30.15,10.0,WNW,3.5,-,N/A,,Clear,300,2012-10-19 02:35:00
7:55 PM,64.4,37.4,37,30.15,10.0,NW,3.5,-,N/A,,Clear,320,2012-10-19 02:55:00
8:35 PM,62.6,39.2,42,30.15,9.0,NW,4.6,-,N/A,,Clear,320,2012-10-19 03:35:00
8:55 PM,64.4,41.0,42,30.15,10.0,NNW,4.6,-,N/A,,Clear,330,2012-10-19 03:55:00
11:55 PM,57.2,37.4,48,30.17,10.0,Calm,Calm,-,N/A,,Clear,0,2012-10-19 06:55:00